Saginaw, MI

6:16 AM EDT on May 28, 2018 (GMT -0400)
MBS International

Weather History for KMBS - October, 2011

Change the Weather History Date:

Sunday, October 30, 2011

  Actual Average Record
Temperature  
Mean Temperature 39 °F 45 °F  
Max Temperature 50 °F 54 °F 75 °F (1999)
Min Temperature 28 °F 36 °F 27 °F (2008)
Degree Days  
Heating Degree Days 26    
Month to date heating degree days  
Since 1 July heating degree days  
Cooling Degree Days 0    
Month to date cooling degree days  
Year to date cooling degree days  
Moisture  
Dew Point 31 °F    
Average Humidity 88    
Maximum Humidity 100    
Minimum Humidity 46    
Precipitation  
Precipitation 0.00 in 0.09 in 0.36 in (2012)
Month to date precipitation 2.55  
Year to date precipitation 26.90  
Snow  
Snow 0.00 in - - ()
Month to date snowfall  
Since 1 July snowfall  
Since 1 September snowfall  
Snow Depth -    
Sea Level Pressure  
Sea Level Pressure 30.15 in    
Wind  
Wind Speed 4 mph (SSW)    
Max Wind Speed 13 mph    
Max Gust Speed 20 mph    
Visibility 4 miles    
Events Fog    
T = Trace of Precipitation, MM = Missing Value Source: NWS Daily Summary

Daily Weather History Graph

Daily Weather History Graph

Search for Another Location

Airport or City:

Astronomy

Oct. 30, 2011 Rise Set
Actual Time 8:08 AM EDT 6:30 PM EDT
Civil Twilight 7:39 AM EDT 7:00 PM EDT
Nautical Twilight 7:05 AM EDT 7:33 PM EDT
Astronomical Twilight 6:32 AM EDT 8:06 PM EDT
Moon 12:32 PM EDT (10/30) 9:53 PM EDT (10/30)
Length of Visible Light 11h 20m
Length of Day
10h 21m
Waxing Crescent, 20% of the Moon is Illuminated
Oct 30
Waxing Crescent
Nov 2
First Quarter
Nov 10
Full
Nov 18
Last Quarter
Nov 25
New

Hourly Weather History & Observations

Time (EDT) Temp. Windchill Dew Point Humidity Pressure Visibility Wind Dir Wind Speed Gust Speed Precip Events Conditions
12:53 AM 35.1 °F 32.2 °F 34.0 °F 96% 30.14 in 5.0 mi WSW 3.5 mph - N/A   Clear
1:30 AM 32.0 °F 27.5 °F 30.2 °F 93% 30.12 in 1.8 mi WSW 4.6 mph - N/A   Partly Cloudy
1:33 AM 33.8 °F 28.6 °F 32.0 °F 93% 30.12 in 0.8 mi WSW 5.8 mph - N/A   Mist
1:45 AM 33.8 °F 29.6 °F 33.8 °F 100% 30.12 in 1.2 mi WSW 4.6 mph - N/A   Partly Cloudy
1:49 AM 32.0 °F 27.5 °F 32.0 °F 100% 30.12 in 3.0 mi WSW 4.6 mph - N/A   Partly Cloudy
1:53 AM 33.1 °F 28.7 °F 32.0 °F 96% 30.14 in 3.0 mi WSW 4.6 mph - N/A   Partly Cloudy
2:24 AM 32.0 °F 28.7 °F 32.0 °F 100% 30.12 in 2.0 mi WSW 3.5 mph - N/A   Clear
2:31 AM 30.2 °F 26.7 °F 30.2 °F 100% 30.12 in 1.2 mi WSW 3.5 mph - N/A   Clear
2:53 AM 33.1 °F 30.0 °F 32.0 °F 96% 30.15 in 2.0 mi WSW 3.5 mph - N/A   Clear
3:18 AM 32.0 °F - 30.2 °F 93% 30.14 in 1.0 mi Calm Calm - N/A   Clear
3:26 AM 30.2 °F 26.7 °F 30.2 °F 100% 30.14 in 0.8 mi SW 3.5 mph - N/A   Clear
3:40 AM 30.2 °F 26.7 °F 30.2 °F 100% 30.14 in 0.5 mi SW 3.5 mph - N/A Fog Light Freezing Fog
3:49 AM 30.2 °F 26.7 °F 30.2 °F 100% 30.14 in 0.2 mi SW 3.5 mph - N/A Fog Light Freezing Fog
3:53 AM 32.0 °F 28.7 °F 30.9 °F 96% 30.16 in 0.2 mi SW 3.5 mph - N/A Fog Fog
4:05 AM 32.0 °F 28.7 °F 30.2 °F 93% 30.14 in 0.5 mi SW 3.5 mph - N/A Fog Fog
4:28 AM 30.2 °F - 30.2 °F 100% 30.14 in 0.2 mi Calm Calm - N/A Fog Light Freezing Fog
4:53 AM 30.0 °F - 28.9 °F 96% 30.16 in 0.2 mi Calm Calm - N/A Fog Light Freezing Fog
5:38 AM 28.4 °F 24.6 °F 26.6 °F 93% 30.15 in 0.2 mi SSW 3.5 mph - N/A Fog Light Freezing Fog
5:50 AM 28.4 °F 23.3 °F 28.4 °F 100% 30.15 in 0.5 mi SW 4.6 mph - N/A Fog Light Freezing Fog
5:53 AM 28.9 °F 22.8 °F 28.0 °F 96% 30.18 in 0.5 mi SW 5.8 mph - N/A Fog Light Freezing Fog
6:23 AM 28.4 °F 24.6 °F 28.4 °F 100% 30.16 in 0.2 mi SW 3.5 mph - N/A Fog Light Freezing Fog
6:53 AM 28.9 °F 25.2 °F 28.0 °F 96% 30.19 in 0.2 mi SSW 3.5 mph - N/A Fog Light Freezing Fog
7:03 AM 28.4 °F - 26.6 °F 93% 30.17 in 1.2 mi Calm Calm - N/A   Mostly Cloudy
7:06 AM 28.4 °F - 26.6 °F 93% 30.16 in 2.5 mi Calm Calm - N/A   Scattered Clouds
7:53 AM 28.4 °F - 26.6 °F 93% 30.17 in 2.0 mi Calm Calm - N/A   Clear
8:00 AM 28.4 °F - 28.4 °F 100% 30.17 in 1.0 mi Calm Calm - N/A   Clear
8:53 AM 30.0 °F 25.2 °F 28.9 °F 96% 30.22 in 1.5 mi SSW 4.6 mph - N/A   Clear
9:05 AM 30.2 °F - 30.2 °F 100% 30.20 in 2.0 mi Calm Calm - N/A   Clear
9:22 AM 30.2 °F - 30.2 °F 100% 30.20 in 1.0 mi Calm Calm - N/A   Mist
9:39 AM 32.0 °F 28.7 °F 32.0 °F 100% 30.20 in 0.5 mi South 3.5 mph - N/A Fog Fog
9:46 AM 30.2 °F - 30.2 °F 100% 30.20 in 0.2 mi Calm Calm - N/A Fog Light Freezing Fog
9:53 AM 30.9 °F 27.5 °F 30.9 °F 100% 30.22 in 0.1 mi South 3.5 mph - N/A Fog Light Freezing Fog
10:49 AM 33.8 °F 29.6 °F 33.8 °F 100% 30.20 in 1.0 mi South 4.6 mph - N/A   Overcast
10:50 AM 34.0 °F 29.8 °F 34.0 °F 100% 30.22 in 1.0 mi South 4.6 mph - N/A   Mostly Cloudy
11:13 AM 35.6 °F 32.8 °F 35.6 °F 100% 30.19 in 2.0 mi South 3.5 mph - N/A   Scattered Clouds
11:22 AM 37.4 °F - 35.6 °F 93% 30.19 in 4.0 mi Calm Calm - N/A   Scattered Clouds
11:53 AM 39.9 °F 35.8 °F 37.9 °F 93% 30.21 in 6.0 mi SSW 5.8 mph - N/A   Clear
12:53 PM 44.1 °F 41.5 °F 37.9 °F 79% 30.20 in 9.0 mi South 4.6 mph - N/A   Clear
1:53 PM 46.9 °F - 37.9 °F 71% 30.17 in 10.0 mi South 5.8 mph - N/A   Clear
2:53 PM 50.0 °F - 32.0 °F 50% 30.15 in 10.0 mi South 9.2 mph - N/A   Partly Cloudy
3:53 PM 50.0 °F - 30.0 °F 46% 30.13 in 10.0 mi South 9.2 mph - N/A   Overcast
4:53 PM 50.0 °F - 30.0 °F 46% 30.12 in 10.0 mi South 8.1 mph - N/A   Overcast
5:53 PM 48.9 °F - 32.0 °F 52% 30.10 in 10.0 mi SE 8.1 mph - N/A   Overcast
6:53 PM 48.2 °F - 33.8 °F 58% 30.08 in 10.0 mi SSE 9.2 mph - N/A   Scattered Clouds
7:53 PM 48.0 °F - 34.0 °F 58% 30.12 in 10.0 mi South 8.1 mph - N/A   Overcast
8:53 PM 48.0 °F - 34.0 °F 58% 30.10 in 10.0 mi SSE 12.7 mph - N/A   Overcast
9:53 PM 48.0 °F - 34.0 °F 58% 30.10 in 10.0 mi SSE 12.7 mph - N/A   Overcast
10:53 PM 48.0 °F - 34.0 °F 58% 30.09 in 10.0 mi South 12.7 mph 19.6 mph N/A   Overcast
11:53 PM 48.0 °F - 35.1 °F 61% 30.08 in 10.0 mi South 11.5 mph - N/A   Overcast